Weather History for El Dorado, AR

Change the Weather History Date:

Wednesday, February 13, 2013

  Actual Average Record
Temperature  
Mean Temperature 44 °F 47 °F  
Max Temperature 52 °F 59 °F 83 °F (1962)
Min Temperature 36 °F 36 °F 6 °F (1905)
Degree Days  
Heating Degree Days 21 18  
Month to date heating degree days 195 248  
Since 1 July heating degree days 1750 1991  
Cooling Degree Days 0 0  
Month to date cooling degree days 0 0  
Year to date cooling degree days 6 2  
Moisture  
Dew Point 39 °F    
Average Humidity 79    
Maximum Humidity 96    
Minimum Humidity 61    
Precipitation  
Precipitation T in 0.17 in 1.38 in (1945)
Month to date precipitation 2.02 2.16  
Year to date precipitation 5.68 6.46  
Snow  
Snow 0.00 in - - ()
Month to date snowfall 0.0  
Since 1 July snowfall 0.1  
Snow Depth 0.00 in    
Sea Level Pressure  
Sea Level Pressure 30.01 in    
Wind  
Wind Speed 6 mph (WNW)    
Max Wind Speed 13 mph    
Max Gust Speed 17 mph    
Visibility 10 miles    
Events Rain    
T = Trace of Precipitation, MM = Missing Value Source: NWS Daily Summary

Daily Weather History Graph

Daily Weather History Graph

Search for Another Location

Airport:

Trip Planner

Search our weather history database for the weather conditions in past years. The results will help you decide how hot, cold, wet, or windy it might be!

Date:

Astronomy

Feb. 13, 2013 Rise Set
Actual Time 6:56 AM CST 5:54 PM CST
Civil Twilight 6:31 AM CST 6:20 PM CST
Nautical Twilight 6:02 AM CST 6:49 PM CST
Astronomical Twilight 5:33 AM CST 7:18 PM CST
Moon 8:40 AM CST (2/13) 9:41 PM CST (2/13)
Length of Visible Light 11h 48m
Length of Day
10h 58m
Waxing Crescent, 14% of the Moon is Illuminated
Feb 13
Waxing Crescent
Feb 17
First Quarter
Feb 25
Full
Mar 4
Last Quarter
Mar 11
New

Hourly Weather History & Observations

Time (CST) Temp. Windchill Dew Point Humidity Pressure Visibility Wind Dir Wind Speed Gust Speed Precip Events Conditions
12:17 AM 44.6 °F 42.2 °F 42.8 °F 93% 29.89 in 7.0 mi West 4.6 mph - N/A   Overcast
12:53 AM 44.1 °F 40.1 °F 43.0 °F 96% 29.89 in 5.0 mi WNW 6.9 mph - 0.00 in Rain Light Rain
1:31 AM 44.6 °F 39.7 °F 42.8 °F 93% 29.89 in 6.0 mi WNW 9.2 mph - 0.00 in Rain Light Rain
1:53 AM 44.1 °F 39.0 °F 42.1 °F 93% 29.90 in 10.0 mi WNW 9.2 mph - 0.00 in   Overcast
2:53 AM 43.0 °F 37.7 °F 41.0 °F 93% 29.91 in 10.0 mi WNW 9.2 mph - N/A   Overcast
3:38 AM 42.8 °F 38.6 °F 41.0 °F 93% 29.92 in 10.0 mi WNW 6.9 mph - N/A   Overcast
3:50 AM 42.8 °F 37.0 °F 41.0 °F 93% 29.93 in 10.0 mi WNW 10.4 mph - N/A   Overcast
3:53 AM 43.0 °F 38.8 °F 41.0 °F 93% 29.94 in 10.0 mi WNW 6.9 mph - N/A   Overcast
4:00 AM 42.8 °F 38.6 °F 41.0 °F 93% 29.94 in 10.0 mi WNW 6.9 mph - N/A   Overcast
4:45 AM 42.8 °F 38.6 °F 39.2 °F 87% 29.95 in 10.0 mi WNW 6.9 mph - N/A   Overcast
4:53 AM 43.0 °F 39.5 °F 39.9 °F 89% 29.96 in 10.0 mi WNW 5.8 mph - N/A   Overcast
5:12 AM 42.8 °F 39.3 °F 39.2 °F 87% 29.97 in 10.0 mi WNW 5.8 mph - N/A   Overcast
5:19 AM 42.8 °F 39.3 °F 39.2 °F 87% 29.97 in 10.0 mi WNW 5.8 mph - N/A   Overcast
5:40 AM 42.8 °F 40.1 °F 39.2 °F 87% 29.99 in 10.0 mi WNW 4.6 mph - N/A   Overcast
5:53 AM 42.1 °F 38.4 °F 39.9 °F 92% 29.99 in 10.0 mi WNW 5.8 mph - N/A   Overcast
6:17 AM 42.8 °F 37.5 °F 39.2 °F 87% 30.00 in 10.0 mi NW 9.2 mph - N/A   Overcast
6:32 AM 41.0 °F 35.2 °F 37.4 °F 87% 30.00 in 10.0 mi NW 9.2 mph - N/A   Overcast
6:42 AM 41.0 °F 35.8 °F 37.4 °F 87% 30.01 in 10.0 mi NW 8.1 mph - N/A   Overcast
6:53 AM 41.0 °F 36.4 °F 37.0 °F 86% 30.01 in 10.0 mi NNW 6.9 mph - N/A   Overcast
7:53 AM 41.0 °F 38.0 °F 37.9 °F 89% 30.04 in 10.0 mi NNW 4.6 mph - N/A   Overcast
8:51 AM 42.8 °F 37.5 °F 37.4 °F 81% 30.06 in 10.0 mi WNW 9.2 mph - N/A   Overcast
8:53 AM 42.1 °F 36.6 °F 37.9 °F 85% 30.07 in 10.0 mi NW 9.2 mph - N/A   Overcast
9:12 AM 42.8 °F 38.0 °F 37.4 °F 81% 30.08 in 10.0 mi WNW 8.1 mph - N/A   Overcast
9:53 AM 43.0 °F 36.8 °F 37.9 °F 82% 30.10 in 10.0 mi West 11.5 mph - N/A   Overcast
10:53 AM 45.0 °F 40.1 °F 37.9 °F 76% 30.10 in 10.0 mi NW 9.2 mph - N/A   Overcast
11:02 AM 44.6 °F 40.2 °F 37.4 °F 76% 30.10 in 10.0 mi NW 8.1 mph - N/A   Overcast
11:18 AM 44.6 °F 40.2 °F 37.4 °F 76% 30.10 in 10.0 mi NNW 8.1 mph - N/A   Overcast
11:53 AM 46.0 °F 41.9 °F 37.9 °F 73% 30.09 in 10.0 mi NNW 8.1 mph - N/A   Mostly Cloudy
12:53 PM 48.9 °F - 37.9 °F 66% 30.06 in 10.0 mi Variable 5.8 mph - N/A   Scattered Clouds
1:53 PM 50.0 °F - 37.0 °F 61% 30.04 in 10.0 mi WNW 9.2 mph - N/A   Overcast
2:53 PM 50.0 °F - 37.9 °F 63% 30.03 in 10.0 mi NW 6.9 mph - N/A   Overcast
3:53 PM 50.0 °F - 37.0 °F 61% 30.03 in 10.0 mi NNW 8.1 mph - N/A   Mostly Cloudy
4:53 PM 50.0 °F - 37.9 °F 63% 30.04 in 10.0 mi West 5.8 mph - N/A   Mostly Cloudy
5:53 PM 46.0 °F 43.9 °F 37.9 °F 73% 30.04 in 10.0 mi West 4.6 mph - N/A   Clear
6:53 PM 43.0 °F 41.3 °F 37.0 °F 80% 30.04 in 10.0 mi SW 3.5 mph - N/A   Clear
7:53 PM 41.0 °F 39.0 °F 37.0 °F 86% 30.06 in 10.0 mi WSW 3.5 mph - N/A   Clear
8:53 PM 37.9 °F 35.5 °F 36.0 °F 93% 30.07 in 10.0 mi SW 3.5 mph - N/A   Clear
9:53 PM 39.0 °F 35.7 °F 35.1 °F 86% 30.08 in 10.0 mi SW 4.6 mph - N/A   Clear
10:53 PM 37.9 °F 35.5 °F 35.1 °F 89% 30.09 in 10.0 mi SSW 3.5 mph - N/A   Clear
11:53 PM 36.0 °F - 34.0 °F 93% 30.09 in 10.0 mi Calm Calm - N/A   Clear